#timestamp,LO_Frequency,Hit,StdDev 
1515646815.4,286047003.9,P
1515646835.2,286047003.6,N
1515646855.1,286047003.2,N
1515646856.0,286047003.2,N
1515646875.8,286047003.2,N
1515646895.6,286047003.1,N
1515646915.5,286047004.3,N
1515646935.3,286047002.0,N
1515646955.1,286047002.3,N
1515646975.9,286047002.3,N
1515646995.7,286047003.9,N
1515647015.6,286047003.4,N
1515647035.4,286047004.8,Y
1515647055.2,286047004.3,P
1515647075.1,286047003.9,P
1515647076.0,286047003.9,P
1515647095.8,286047001.3,N
1515647115.6,286047002.8,N
1515647165.5,286047002.4,E
1515647175.4,286047000.7,N
1515647195.3,286046998.4,P
1515647215.1,286046997.0,N
1515647235.9,286046994.9,Y
1515647255.7,286046996.6,P
1515647275.5,286046997.0,N
1515647295.4,286046996.9,P
1515647345.2,286046996.2,E
1515647355.2,286046996.7,N
1515647375.9,286047000.7,P
1515647395.7,286047000.7,N
1515647415.6,286047000.7,N
1515647435.4,286047000.9,N
1515647455.2,286046998.4,N
1515647475.1,286046998.3,N
1515647476.0,286046998.3,N
1515647495.8,286046998.9,N
1515647515.7,286046998.7,N
1515647535.5,286046997.0,N
1515647555.3,286046999.2,N
1515647575.2,286046999.0,N
1515647595.0,286046998.2,N
1515647595.9,286046998.2,N
1515647615.8,286046999.1,N
1515647635.6,286046996.6,N
1515647655.4,286046999.2,N
1515647675.3,286046997.6,N
1515647695.1,286046995.3,Y
1515647715.8,286046996.7,P
1515647735.7,286046997.2,N
1515647755.5,286046997.2,P
1515647775.4,286046995.5,Y
1515647795.2,286046998.8,P
1515647815.0,286046996.9,P
1515647815.9,286046996.9,P
1515647835.8,286046997.0,Y
1515647855.6,286047002.0,P
1515647875.5,286047001.6,N
1515647895.3,286047000.2,N
1515647915.1,286047002.7,N
1515647935.9,286047002.6,N
1515647955.7,286046998.2,N
1515647975.5,286046998.8,N
1515647995.4,286046999.0,N
1515648015.2,286046998.6,N
1515648035.1,286046997.0,N
1515648036.0,286046997.0,N
1515648055.8,286047001.1,N
1515648075.6,286047001.2,N
1515648095.5,286047001.1,N
1515648115.3,286047000.6,N
1515648135.1,286047001.0,N
1515648155.9,286046998.9,N
1515648175.7,286047001.1,N
1515648195.6,286047000.8,N
1515648215.4,286047001.2,N
1515648235.2,286047000.7,N
1515648255.1,286047000.5,N
1515648256.0,286047000.5,N
1515648275.8,286047000.7,N
1515648295.7,286047000.9,N
1515648315.5,286046998.5,N
1515648335.3,286046999.4,N
1515648355.2,286046999.3,N
1515648375.0,286046999.0,N
1515648375.9,286046999.0,N
1515648395.8,286046998.5,N
1515648415.6,286047000.7,N
1515648435.4,286046998.5,N
1515648455.3,286046998.7,N
1515648475.1,286046998.5,N
1515648495.8,286046998.3,N
1515648515.7,286046998.5,N
1515648535.5,286046998.8,N
1515648555.7,286046999.6,N
1515648575.6,286046996.9,N
1515648595.4,286046997.0,N
1515648615.2,286046999.2,N
1515648635.1,286046998.9,N
1515648636.0,286046998.9,N
1515648655.8,286046998.9,N
1515648675.6,286046998.6,N
1515648695.5,286046998.7,N
1515648715.3,286046998.8,N
1515648735.2,286046999.4,N
1515648755.9,286046996.8,Y
1515648775.7,286046997.1,P
1515648795.6,286046999.1,N
1515648815.4,286046996.9,P
1515648835.3,286046998.9,N
1515648855.1,286046998.5,N
1515648856.0,286046998.5,N
1515648875.8,286046999.0,N
1515648895.7,286046999.6,N
1515648915.5,286046996.6,Y
1515648935.4,286046998.8,P
1515648955.2,286046996.5,P
1515648975.0,286046996.9,P
1515648975.9,286046996.9,Y
1515648995.8,286047000.6,P
1515649015.6,286047001.1,N
1515649035.5,286047002.3,N
1515649055.3,286047000.0,N
1515649075.1,286047001.6,N
1515649095.9,286047001.9,N
1515649115.7,286047003.9,N
1515649135.6,286047002.4,N
1515649155.4,286047002.1,N
1515649175.2,286047002.1,N
1515649195.1,286047000.9,N
1515649196.0,286047000.9,N
1515649215.8,286047002.7,N
1515649235.6,286047002.1,N
1515649255.5,286047001.9,N
1515649275.3,286047001.8,N
1515649295.2,286047002.0,N
1515649315.9,286047000.5,N
1515649335.7,286046998.5,N
1515649355.6,286047001.2,N
1515649375.4,286046998.5,N
1515649395.2,286046998.1,N
1515649415.1,286046999.3,N
1515649416.0,286046999.3,N
1515649435.8,286046998.2,N
1515649455.7,286046998.2,N
1515649475.5,286046998.5,N
1515649495.3,286046998.5,N
1515649515.2,286046999.7,N
1515649535.0,286047002.2,N
1515649535.9,286047002.2,N
1515649555.7,286047001.8,N
1515649575.6,286047002.2,N
1515649595.4,286047001.7,N
1515649615.3,286047001.4,N
1515649635.1,286047001.6,N
1515649636.0,286047001.6,N
1515649655.8,286047002.4,N
1515649675.7,286047002.1,N
1515649695.5,286047002.6,N
1515649715.3,286047000.0,N
1515649735.2,286047001.3,N
1515649755.0,286046999.7,N
1515649755.9,286046999.7,N
1515649775.8,286047002.8,N
1515649795.6,286047002.1,N
1515649815.4,286047001.5,N
1515649835.3,286047003.4,N
1515649855.1,286047005.5,Y
1515649875.9,286047003.1,P
1515649895.7,286047004.3,P
1515649915.5,286047003.5,N
1515649935.4,286047003.4,N
1515649955.2,286047003.3,N
1515649975.1,286047005.5,Y
1515649976.0,286047005.5,P
1515649995.8,286047002.4,N
1515650015.6,286046999.9,N
1515650035.5,286047001.0,N
1515650055.3,286046999.9,N
1515650075.2,286047002.3,N
1515650095.9,286047000.4,N
1515650115.7,286047000.9,N
1515650135.6,286047000.4,N
1515650155.4,286046998.6,N
1515650175.2,286046999.3,N
1515650195.1,286046999.4,N
1515650196.0,286046999.4,N
1515650215.8,286047000.8,N
1515650235.7,286047000.6,N
1515650255.5,286046998.1,N
1515650275.3,286047001.0,N
1515650295.2,286047000.9,N
1515650315.0,286047000.3,N
1515650315.9,286047000.3,N
1515650335.7,286047000.5,N
1515650355.6,286047001.9,N
1515650375.4,286047002.3,N
1515650395.3,286046999.7,N
